Crisp Cnty-Cordele AP, Cordel, GA

3:01 AM EST on November 17, 2019 (GMT -0500)
Crisp County-Cordele

Weather History for KCKF - October, 2019

Change the Weather History Date:

Monday, October 21, 2019

  Actual Average (WUND) Record (WUND)
Temperature  
Mean Temperature 70 °F -  
Max Temperature 82 °F - - (-1)
Min Temperature 57 °F - - (-1)
Cooling Degree Days 4    
Growing Degree Days 20 (Base 50)    
Moisture  
Dew Point 62 °F    
Average Humidity 80    
Maximum Humidity 99    
Minimum Humidity 45    
Precipitation  
Precipitation 0.00 in - - ()
Sea Level Pressure  
Sea Level Pressure 29.98 in    
Wind  
Wind Speed 1 mph (SSE)    
Max Wind Speed 9 mph    
Max Gust Speed -    
Visibility 10 miles    
Events      
Averages and records for this station are not official NWS values.
T = Trace of Precipitation, MM = Missing Value Source: NWS Daily Summary

Daily Weather History Graph

Daily Weather History Graph

Search for Another Location

Airport or City:

Astronomy

Oct. 21, 2019 Rise Set
Actual Time 7:42 AM EDT 6:56 PM EDT
Civil Twilight 7:17 AM EDT 7:20 PM EDT
Nautical Twilight 6:49 AM EDT 7:49 PM EDT
Astronomical Twilight 6:21 AM EDT 8:17 PM EDT
Moon 12:18 AM EDT (10/21) 2:47 PM EDT (10/21)
Length of Visible Light 12h 02m
Length of Day
11h 13m
Waning Gibbous, 48% of the Moon is Illuminated
Oct 21
Waning Gibbous
Oct 27
New
Nov 4
First Quarter
Nov 12
Full
Nov 19
Last Quarter

Hourly Weather History & Observations

Time (EDT) Temp. Heat Index Dew Point Humidity Pressure Visibility Wind Dir Wind Speed Gust Speed Precip Events Conditions
12:15 AM 60.6 °F - 59.9 °F 97% 30.00 in 10.0 mi Calm Calm - N/A   Clear
12:35 AM 60.8 °F - 59.9 °F 97% 30.00 in 10.0 mi Calm Calm - N/A   Clear
12:55 AM 60.4 °F - 59.7 °F 97% 29.99 in 10.0 mi Calm Calm - N/A   Clear
1:35 AM 59.7 °F - 59.0 °F 97% 29.99 in 10.0 mi Calm Calm - N/A   Clear
1:55 AM 58.8 °F - 58.1 °F 97% 29.99 in 10.0 mi Calm Calm - N/A   Clear
2:15 AM 59.5 °F - 58.6 °F 97% 29.99 in 10.0 mi Calm Calm - N/A   Clear
2:35 AM 59.4 °F - 58.6 °F 97% 29.99 in 10.0 mi Calm Calm - N/A   Clear
2:55 AM 59.4 °F - 58.6 °F 97% 29.98 in 10.0 mi Calm Calm - N/A   Clear
3:15 AM 58.6 °F - 57.7 °F 97% 29.98 in 10.0 mi Calm Calm - N/A   Clear
3:35 AM 59.0 °F - 58.3 °F 97% 29.97 in 10.0 mi Calm Calm - N/A   Clear
3:55 AM 58.5 °F - 57.7 °F 97% 29.97 in 10.0 mi Calm Calm - N/A   Clear
4:15 AM 58.1 °F - 57.4 °F 97% 29.97 in 10.0 mi Calm Calm - N/A   Clear
4:35 AM 57.9 °F - 57.2 °F 97% 29.97 in 10.0 mi Calm Calm - N/A   Clear
4:55 AM 58.1 °F - 57.2 °F 97% 29.97 in 10.0 mi Calm Calm - N/A   Clear
5:15 AM 58.6 °F - 58.1 °F 98% 29.97 in 10.0 mi Calm Calm - N/A   Clear
5:35 AM 58.1 °F - 57.2 °F 97% 29.97 in 10.0 mi Calm Calm - N/A   Clear
5:55 AM 58.3 °F - 57.6 °F 97% 29.97 in 10.0 mi Calm Calm - N/A   Clear
6:35 AM 57.9 °F - 57.2 °F 97% 30.00 in 10.0 mi Calm Calm - N/A   Clear
6:55 AM 57.4 °F - 56.8 °F 98% 30.00 in 10.0 mi Calm Calm - N/A   Clear
7:15 AM 57.6 °F - 56.8 °F 97% 30.00 in 10.0 mi Calm Calm - N/A   Clear
7:35 AM 57.6 °F - 57.2 °F 99% 29.99 in 10.0 mi Calm Calm - N/A   Clear
7:55 AM 57.2 °F - 56.7 °F 98% 29.99 in 10.0 mi Calm Calm - N/A   Clear
8:15 AM 58.3 °F - 57.6 °F 97% 29.99 in 10.0 mi Calm Calm - N/A   Clear
8:35 AM 60.1 °F - 59.5 °F 98% 30.00 in 10.0 mi Calm Calm - N/A   Clear
8:55 AM 61.7 °F - 61.0 °F 97% 30.01 in 10.0 mi Calm Calm - N/A   Clear
9:15 AM 64.4 °F - 62.8 °F 94% 30.01 in 10.0 mi Calm Calm - N/A   Clear
9:35 AM 66.6 °F - 63.0 °F 88% 30.02 in 10.0 mi Calm Calm - N/A   Clear
9:55 AM 68.5 °F - 63.1 °F 83% 30.02 in 10.0 mi SE 4.6 mph - N/A   Clear
10:15 AM 69.8 °F - 63.1 °F 79% 30.02 in 10.0 mi SSE 5.8 mph - N/A   Clear
10:35 AM 70.9 °F - 62.8 °F 75% 30.02 in 10.0 mi SSE 6.9 mph - N/A   Clear
10:55 AM 72.0 °F - 62.8 °F 73% 30.02 in 10.0 mi South 5.8 mph - N/A   Scattered Clouds
11:15 AM 72.3 °F - 62.8 °F 72% 30.03 in 10.0 mi SSE 8.1 mph - N/A   Scattered Clouds
11:35 AM 73.6 °F - 62.6 °F 68% 30.03 in 10.0 mi SE 9.2 mph - N/A   Scattered Clouds
11:55 AM 73.9 °F - 62.6 °F 68% 30.03 in 10.0 mi SSE 5.8 mph - N/A   Scattered Clouds
12:15 PM 75.6 °F - 62.8 °F 64% 30.01 in 10.0 mi SSE 9.2 mph - N/A   Scattered Clouds
12:35 PM 76.6 °F - 62.8 °F 62% 30.01 in 10.0 mi SSE 3.5 mph - N/A   Clear
12:55 PM 77.7 °F - 62.1 °F 58% 30.01 in 10.0 mi South 6.9 mph - N/A   Clear
1:15 PM 78.3 °F - 61.7 °F 57% 30.00 in 10.0 mi SSE 6.9 mph - N/A   Clear
1:35 PM 79.2 °F - 61.2 °F 54% 29.99 in 10.0 mi SSE 5.8 mph - N/A   Clear
1:55 PM 79.5 °F - 61.2 °F 53% 29.98 in 10.0 mi Calm Calm - N/A   Clear
2:15 PM 81.1 °F 81.9 °F 60.8 °F 50% 29.98 in 10.0 mi Calm Calm - N/A   Clear
2:35 PM 80.8 °F 81.4 °F 60.3 °F 49% 29.97 in 10.0 mi SSE 3.5 mph - N/A   Clear
2:55 PM 82.0 °F 82.5 °F 60.8 °F 48% 29.96 in 10.0 mi Calm Calm - N/A   Clear
3:15 PM 80.8 °F 81.5 °F 60.8 °F 50% 29.97 in 10.0 mi Calm Calm - N/A   Scattered Clouds
3:35 PM 82.4 °F 83.0 °F 61.3 °F 49% 29.97 in 10.0 mi South 6.9 mph - N/A   Mostly Cloudy
3:55 PM 82.4 °F 82.6 °F 59.7 °F 46% 29.96 in 10.0 mi SSE 9.2 mph - N/A   Scattered Clouds
4:15 PM 82.8 °F 82.8 °F 59.7 °F 45% 29.96 in 10.0 mi South 5.8 mph - N/A   Scattered Clouds
4:35 PM 82.6 °F 83.1 °F 60.8 °F 48% 29.96 in 10.0 mi South 4.6 mph - N/A   Scattered Clouds
4:55 PM 82.6 °F 82.8 °F 59.9 °F 46% 29.95 in 10.0 mi South 6.9 mph - N/A   Mostly Cloudy
5:15 PM 81.3 °F 82.1 °F 61.0 °F 50% 29.95 in 10.0 mi South 3.5 mph - N/A   Overcast
5:35 PM 80.8 °F 81.6 °F 61.3 °F 51% 29.94 in 10.0 mi SSE 4.6 mph - N/A   Overcast
5:55 PM 80.6 °F 81.7 °F 62.2 °F 53% 29.94 in 10.0 mi Calm Calm - N/A   Scattered Clouds
6:15 PM 79.9 °F - 63.0 °F 56% 29.94 in 10.0 mi Calm Calm - N/A   Scattered Clouds
6:35 PM 76.3 °F - 66.0 °F 70% 29.94 in 10.0 mi Calm Calm - N/A   Scattered Clouds
6:55 PM 74.7 °F - 66.2 °F 75% 29.95 in 10.0 mi Calm Calm - N/A   Mostly Cloudy
7:15 PM 73.0 °F - 66.9 °F 81% 29.95 in 10.0 mi ESE 3.5 mph - N/A   Scattered Clouds
7:35 PM 72.7 °F - 66.4 °F 81% 29.96 in 10.0 mi Calm Calm - N/A   Clear
7:55 PM 71.1 °F - 67.1 °F 87% 29.96 in 10.0 mi Calm Calm - N/A   Clear
8:15 PM 70.2 °F - 66.9 °F 89% 29.96 in 10.0 mi Calm Calm - N/A   Clear
8:35 PM 70.0 °F - 66.9 °F 90% 29.96 in 10.0 mi Calm Calm - N/A   Clear
8:55 PM 69.8 °F - 66.6 °F 89% 29.96 in 10.0 mi Calm Calm - N/A   Clear
9:15 PM 69.8 °F - 66.7 °F 90% 29.96 in 10.0 mi Calm Calm - N/A   Mostly Cloudy
9:35 PM 69.8 °F - 66.9 °F 91% 29.97 in 10.0 mi Calm Calm - N/A   Overcast
9:55 PM 71.1 °F - 67.5 °F 88% 29.98 in 10.0 mi Calm Calm - N/A   Overcast
10:15 PM 70.3 °F - 67.6 °F 91% 29.98 in 10.0 mi Calm Calm - N/A   Overcast
10:35 PM 70.7 °F - 67.6 °F 90% 29.98 in 10.0 mi Calm Calm - N/A   Overcast
10:55 PM 71.2 °F - 68.0 °F 89% 29.98 in 10.0 mi SE 4.6 mph - N/A   Overcast
11:15 PM 72.7 °F - 67.1 °F 83% 29.98 in 10.0 mi SSE 3.5 mph - N/A   Overcast
11:35 PM 73.4 °F - 67.3 °F 81% 29.98 in 10.0 mi Calm Calm - N/A   Overcast
11:55 PM 73.4 °F - 67.8 °F 83% 29.98 in 10.0 mi Calm Calm - N/A   Overcast